| time (UTC) | temp F | wind direction | speed knots | gust knots | rain 1hr in | rain 24hr in | rain mn in | humidity % | barometer mb |
| 20260507112620 | 51 | 192 | 0.0 | 0.0 | 0.00 | 0.00 | 0.00 | 92 | 1021.0 |
| 20260507112116 | 51 | 194 | 0.0 | 0.0 | 0.00 | 0.00 | 0.00 | 92 | 1021.1 |
| 20260507111613 | 51 | 194 | 0.0 | 0.0 | 0.00 | 0.00 | 0.00 | 91 | 1021.0 |
| 20260507111110 | 51 | 194 | 0.0 | 0.0 | 0.00 | 0.00 | 0.00 | 92 | 1021.2 |
| 20260507110606 | 51 | 194 | 0.0 | 0.0 | 0.00 | 0.00 | 0.00 | 93 | 1021.1 |
| 20260507105600 | 51 | 194 | 0.0 | 0.0 | 0.00 | 0.00 | 0.00 | 92 | 1021.1 |
| 20260507105055 | 51 | 194 | 0.0 | 0.0 | 0.00 | 0.00 | 0.00 | 92 | 1021.2 |
| 20260507104553 | 51 | 194 | 0.0 | 0.0 | 0.00 | 0.00 | 0.00 | 91 | 1021.4 |
| 20260507104049 | 51 | 194 | 0.0 | 0.0 | 0.00 | 0.00 | 0.00 | 93 | 1021.2 |
| 20260507103545 | 51 | 194 | 0.0 | 0.0 | 0.00 | 0.00 | 0.00 | 92 | 1021.2 |
| 20260507103043 | 51 | 194 | 0.0 | 0.0 | 0.00 | 0.00 | 0.00 | 92 | 1021.2 |
| 20260507102539 | 51 | 194 | 0.0 | 0.0 | 0.00 | 0.00 | 0.00 | 93 | 1021.4 |
| 20260507102035 | 51 | 194 | 0.0 | 0.0 | 0.00 | 0.00 | 0.00 | 93 | 1021.1 |
| 20260507101531 | 50 | 194 | 0.0 | 0.0 | 0.00 | 0.00 | 0.00 | 92 | 1021.3 |
| 20260507101027 | 50 | 194 | 0.0 | 0.0 | 0.00 | 0.00 | 0.00 | 93 | 1021.3 |
| 20260507100525 | 51 | 194 | 0.0 | 0.0 | 0.00 | 0.00 | 0.00 | 92 | 1021.5 |
| 20260507100023 | 51 | 194 | 0.0 | 0.0 | 0.00 | 0.00 | 0.00 | 92 | 1021.3 |
| 20260507095520 | 51 | 194 | 0.0 | 0.0 | 0.00 | 0.00 | 0.00 | 93 | 1021.5 |
| 20260507095017 | 50 | 194 | 0.0 | 0.0 | 0.00 | 0.00 | 0.00 | 92 | 1021.3 |
| 20260507094513 | 50 | 194 | 0.0 | 0.0 | 0.00 | 0.00 | 0.00 | 92 | 1021.4 |
| 20260507094010 | 51 | 194 | 0.0 | 0.0 | 0.00 | 0.00 | 0.00 | 92 | 1021.6 |
| 20260507093508 | 50 | 194 | 0.0 | 0.0 | 0.00 | 0.00 | 0.00 | 92 | 1021.7 |
| 20260507093006 | 50 | 194 | 0.0 | 0.0 | 0.00 | 0.00 | 0.00 | 92 | 1021.6 |
| 20260507092502 | 50 | 196 | 0.0 | 0.0 | 0.00 | 0.00 | 0.00 | 93 | 1021.6 |
| 20260507091959 | 50 | 194 | 0.0 | 0.0 | 0.00 | 0.00 | 0.00 | 92 | 1021.7 |
| 20260507091455 | 50 | 196 | 0.0 | 0.0 | 0.00 | 0.00 | 0.00 | 92 | 1021.8 |
| 20260507090951 | 50 | 196 | 0.0 | 0.0 | 0.00 | 0.00 | 0.00 | 93 | 1021.9 |
| 20260507090447 | 50 | 196 | 0.0 | 0.0 | 0.00 | 0.00 | 0.00 | 94 | 1021.9 |
| 20260507085944 | 50 | 196 | 0.0 | 0.0 | 0.00 | 0.00 | 0.00 | 93 | 1021.8 |
| 20260507085442 | 50 | 194 | 0.0 | 0.0 | 0.00 | 0.00 | 0.00 | 93 | 1021.8 |
| 20260507084938 | 50 | 194 | 0.0 | 0.0 | 0.00 | 0.00 | 0.00 | 93 | 1022.0 |
| 20260507084435 | 50 | 194 | 0.0 | 0.0 | 0.00 | 0.00 | 0.00 | 93 | 1021.8 |
| 20260507083932 | 50 | 194 | 0.0 | 0.0 | 0.00 | 0.00 | 0.00 | 93 | 1021.8 |
| 20260507083429 | 50 | 194 | 0.0 | 0.0 | 0.00 | 0.00 | 0.00 | 93 | 1021.8 |
| 20260507082925 | 50 | 194 | 0.0 | 0.0 | 0.00 | 0.00 | 0.00 | 93 | 1021.8 |
| 20260507082421 | 50 | 194 | 0.0 | 0.0 | 0.00 | 0.00 | 0.00 | 93 | 1021.8 |
| 20260507081918 | 50 | 194 | 0.0 | 0.0 | 0.00 | 0.00 | 0.00 | 93 | 1021.5 |
| 20260507081414 | 50 | 194 | 0.0 | 0.0 | 0.00 | 0.00 | 0.00 | 93 | 1021.6 |
| 20260507080911 | 50 | 194 | 0.0 | 0.0 | 0.00 | 0.00 | 0.00 | 93 | 1021.9 |
| 20260507080407 | 49 | 194 | 0.0 | 0.0 | 0.00 | 0.00 | 0.00 | 94 | 1021.9 |
| 20260507075902 | 50 | 194 | 0.0 | 0.0 | 0.00 | 0.00 | 0.00 | 92 | 1021.8 |
| 20260507075358 | 50 | 194 | 0.0 | 0.0 | 0.00 | 0.00 | 0.00 | 92 | 1021.7 |
| 20260507074855 | 49 | 194 | 0.0 | 0.0 | 0.00 | 0.00 | 0.00 | 92 | 1021.8 |
| 20260507074352 | 49 | 192 | 0.0 | 0.0 | 0.00 | 0.00 | 0.00 | 94 | 1021.9 |
| 20260507073849 | 49 | 192 | 0.0 | 0.0 | 0.00 | 0.00 | 0.00 | 94 | 1021.9 |
| 20260507073346 | 49 | 194 | 0.0 | 0.0 | 0.00 | 0.00 | 0.00 | 92 | 1022.0 |
| 20260507072843 | 49 | 194 | 0.0 | 0.0 | 0.00 | 0.00 | 0.00 | 93 | 1022.0 |
| 20260507072341 | 48 | 194 | 0.0 | 0.0 | 0.00 | 0.00 | 0.00 | 94 | 1021.9 |
| 20260507071838 | 48 | 194 | 0.0 | 0.0 | 0.00 | 0.00 | 0.00 | 94 | 1021.9 |
| 20260507071335 | 49 | 194 | 0.0 | 0.0 | 0.00 | 0.00 | 0.00 | 93 | 1021.8 |
| 20260507070831 | 49 | 194 | 0.0 | 0.0 | 0.00 | 0.00 | 0.00 | 93 | 1021.8 |
| 20260507070329 | 49 | 194 | 0.0 | 0.0 | 0.00 | 0.00 | 0.00 | 93 | 1021.8 |
| 20260507065825 | 49 | 194 | 0.0 | 0.0 | 0.00 | 0.00 | 0.00 | 94 | 1021.8 |
| 20260507065322 | 48 | 194 | 0.0 | 0.0 | 0.00 | 0.00 | 0.00 | 93 | 1021.8 |
| 20260507064819 | 48 | 194 | 0.0 | 0.0 | 0.00 | 0.00 | 0.00 | 93 | 1021.7 |
| 20260507064318 | 48 | 194 | 0.0 | 0.0 | 0.00 | 0.00 | 0.00 | 94 | 1021.9 |
| 20260507063815 | 48 | 192 | 0.0 | 0.0 | 0.00 | 0.00 | 0.00 | 95 | 1021.8 |
| 20260507063312 | 48 | 183 | 0.0 | 0.0 | 0.00 | 0.00 | 0.00 | 95 | 1021.9 |
| 20260507062809 | 48 | 194 | 0.0 | 0.0 | 0.00 | 0.00 | 0.00 | 95 | 1021.8 |
| 20260507062306 | 48 | 192 | 0.0 | 0.0 | 0.00 | 0.00 | 0.00 | 94 | 1021.9 |
| 20260507061804 | 48 | 194 | 0.0 | 0.0 | 0.00 | 0.00 | 0.00 | 93 | 1021.9 |
| 20260507061301 | 49 | 192 | 0.0 | 0.0 | 0.00 | 0.00 | 0.00 | 94 | 1021.9 |
| 20260507060800 | 49 | 192 | 0.0 | 0.0 | 0.00 | 0.00 | 0.00 | 93 | 1021.9 |
| 20260507060256 | 49 | 192 | 0.0 | 0.0 | 0.00 | 0.00 | 0.00 | 93 | 1021.7 |
| 20260507055752 | 49 | 192 | 0.0 | 0.0 | 0.00 | 0.00 | 0.00 | 92 | 1021.7 |
| 20260507055248 | 49 | 192 | 0.0 | 0.0 | 0.00 | 0.00 | 0.00 | 93 | 1021.8 |
| 20260507054744 | 49 | 194 | 0.0 | 0.0 | 0.00 | 0.00 | 0.00 | 92 | 1022.0 |
| 20260507054241 | 49 | 194 | 0.0 | 0.0 | 0.00 | 0.00 | 0.00 | 94 | 1021.7 |
| 20260507053738 | 49 | 192 | 0.0 | 0.0 | 0.00 | 0.00 | 0.00 | 92 | 1021.7 |
| 20260507053236 | 49 | 194 | 0.0 | 0.0 | 0.00 | 0.00 | 0.00 | 92 | 1021.8 |
| 20260507052735 | 49 | 194 | 0.0 | 0.0 | 0.00 | 0.00 | 0.00 | 93 | 1021.6 |
| 20260507052230 | 49 | 194 | 0.0 | 0.0 | 0.00 | 0.00 | 0.00 | 92 | 1021.8 |
| 20260507051729 | 50 | 197 | 0.0 | 0.0 | 0.00 | 0.00 | 0.00 | 93 | 1021.8 |
| 20260507051225 | 50 | 196 | 0.0 | 0.0 | 0.00 | 0.00 | 0.00 | 93 | 1021.7 |
| 20260507050722 | 50 | 196 | 0.0 | 0.0 | 0.00 | 0.00 | 0.00 | 93 | 1021.6 |
| 20260507050219 | 50 | 194 | 0.0 | 0.0 | 0.00 | 0.00 | 0.00 | 92 | 1021.7 |
| 20260507045716 | 50 | 192 | 0.0 | 0.0 | 0.00 | 0.00 | 0.00 | 92 | 1021.5 |
| 20260507045212 | 50 | 197 | 0.0 | 0.0 | 0.00 | 0.00 | 0.00 | 92 | 1021.5 |
| 20260507044709 | 50 | 197 | 0.0 | 0.0 | 0.00 | 0.00 | 0.00 | 92 | 1021.6 |
| 20260507044206 | 51 | 197 | 0.0 | 0.0 | 0.00 | 0.00 | 0.00 | 92 | 1021.4 |
| 20260507043702 | 51 | 197 | 0.0 | 0.0 | 0.00 | 0.00 | 0.00 | 92 | 1021.5 |
| 20260507043159 | 51 | 197 | 0.0 | 0.0 | 0.00 | 0.00 | 0.00 | 91 | 1021.5 |
| 20260507042655 | 51 | 197 | 0.0 | 0.0 | 0.00 | 0.00 | 0.00 | 90 | 1021.3 |
| 20260507042150 | 53 | 197 | 0.0 | 0.0 | 0.00 | 0.00 | 0.00 | 89 | 1021.2 |
| 20260507041648 | 53 | 195 | 0.0 | 0.0 | 0.00 | 0.00 | 0.00 | 86 | 1021.4 |
| 20260507041144 | 53 | 197 | 0.0 | 0.0 | 0.00 | 0.00 | 0.00 | 89 | 1021.3 |
| 20260507040641 | 52 | 196 | 0.0 | 0.0 | 0.00 | 0.00 | 0.00 | 90 | 1021.3 |
| 20260507040138 | 53 | 197 | 0.0 | 0.0 | 0.00 | 0.00 | 0.00 | 88 | 1021.1 |
| 20260507035633 | 54 | 197 | 0.0 | 0.0 | 0.00 | 0.00 | 0.00 | 86 | 1021.1 |
| 20260507035130 | 53 | 196 | 0.0 | 0.0 | 0.00 | 0.00 | 0.00 | 86 | 1021.0 |
| 20260507034627 | 54 | 196 | 0.0 | 0.0 | 0.00 | 0.00 | 0.00 | 88 | 1021.1 |
| 20260507034124 | 54 | 196 | 0.0 | 0.0 | 0.00 | 0.00 | 0.00 | 88 | 1020.7 |
| 20260507033623 | 54 | 194 | 0.0 | 0.0 | 0.00 | 0.00 | 0.00 | 87 | 1021.0 |
| 20260507033119 | 55 | 194 | 0.0 | 0.0 | 0.00 | 0.00 | 0.00 | 87 | 1021.0 |
| 20260507032617 | 55 | 197 | 0.0 | 0.0 | 0.00 | 0.00 | 0.00 | 87 | 1021.0 |
| 20260507032112 | 55 | 197 | 0.0 | 0.0 | 0.00 | 0.00 | 0.00 | 86 | 1020.8 |
| 20260507031609 | 56 | 197 | 0.0 | 0.0 | 0.00 | 0.00 | 0.00 | 85 | 1020.7 |
| 20260507031106 | 56 | 196 | 0.0 | 0.0 | 0.00 | 0.00 | 0.00 | 85 | 1020.6 |
| 20260507030603 | 57 | 197 | 0.0 | 0.0 | 0.00 | 0.00 | 0.00 | 83 | 1020.6 |
| 20260507030101 | 57 | 196 | 0.0 | 0.0 | 0.00 | 0.00 | 0.00 | 84 | 1020.6 |
| 20260507025558 | 57 | 197 | 0.0 | 0.0 | 0.00 | 0.00 | 0.00 | 82 | 1020.7 |
| 20260507025055 | 58 | 196 | 0.0 | 0.0 | 0.00 | 0.00 | 0.00 | 81 | 1020.6 |
| 20260507024553 | 59 | 197 | 0.0 | 0.0 | 0.00 | 0.00 | 0.00 | 79 | 1020.7 |
| 20260507024049 | 59 | 195 | 0.0 | 0.0 | 0.00 | 0.00 | 0.00 | 78 | 1020.5 |
| 20260507023545 | 59 | 196 | 0.0 | 0.0 | 0.00 | 0.00 | 0.00 | 78 | 1020.4 |
| 20260507023043 | 60 | 196 | 0.0 | 0.0 | 0.00 | 0.00 | 0.00 | 78 | 1020.4 |
| 20260507022539 | 60 | 196 | 0.0 | 0.0 | 0.00 | 0.00 | 0.00 | 77 | 1020.5 |
| 20260507022035 | 61 | 196 | 0.0 | 0.0 | 0.00 | 0.00 | 0.00 | 75 | 1020.6 |
| 20260507021531 | 61 | 196 | 0.0 | 0.0 | 0.00 | 0.00 | 0.00 | 73 | 1020.6 |
| 20260507021028 | 62 | 173 | 0.0 | 0.0 | 0.00 | 0.00 | 0.00 | 71 | 1020.4 |
| 20260507020525 | 62 | 158 | 0.0 | 0.0 | 0.00 | 0.00 | 0.00 | 70 | 1020.3 |
| 20260507020021 | 62 | 158 | 0.0 | 0.0 | 0.00 | 0.00 | 0.00 | 71 | 1020.4 |
| 20260507015520 | 62 | 232 | 0.0 | 0.9 | 0.00 | 0.00 | 0.00 | 70 | 1020.4 |
| 20260507015017 | 64 | 300 | 0.0 | 0.0 | 0.00 | 0.00 | 0.00 | 67 | 1020.4 |
| 20260507014513 | 63 | 299 | 0.0 | 0.9 | 0.00 | 0.00 | 0.00 | 68 | 1020.5 |
| 20260507014009 | 63 | 261 | 0.0 | 0.0 | 0.00 | 0.00 | 0.00 | 68 | 1020.4 |
| 20260507013506 | 63 | 291 | 0.0 | 0.0 | 0.00 | 0.00 | 0.00 | 68 | 1020.7 |
| 20260507013004 | 64 | 196 | 0.9 | 1.7 | 0.00 | 0.00 | 0.00 | 67 | 1020.6 |
| 20260507012500 | 65 | 240 | 2.6 | 2.6 | 0.00 | 0.00 | 0.00 | 65 | 1020.6 |
| 20260507011957 | 64 | 264 | 1.7 | 1.7 | 0.00 | 0.00 | 0.00 | 65 | 1020.5 |
| 20260507011454 | 65 | 277 | 1.7 | 2.6 | 0.00 | 0.00 | 0.00 | 63 | 1020.5 |
| 20260507010949 | 66 | 245 | 0.0 | 0.9 | 0.00 | 0.00 | 0.00 | 63 | 1020.6 |
| 20260507010444 | 67 | 236 | 2.6 | 2.6 | 0.00 | 0.00 | 0.00 | 62 | 1020.7 |
| 20260507005941 | 67 | 264 | 1.7 | 2.6 | 0.00 | 0.00 | 0.00 | 62 | 1020.6 |
| 20260507005439 | 67 | 253 | 1.7 | 2.6 | 0.00 | 0.00 | 0.00 | 60 | 1020.4 |
| 20260507004935 | 66 | 152 | 0.9 | 1.7 | 0.00 | 0.00 | 0.00 | 63 | 1020.4 |
| 20260507004432 | 66 | 267 | 0.9 | 1.7 | 0.00 | 0.00 | 0.00 | 63 | 1020.5 |
| 20260507003929 | 67 | 279 | 1.7 | 2.6 | 0.00 | 0.00 | 0.00 | 62 | 1020.4 |
| 20260507003424 | 69 | 326 | 1.7 | 2.6 | 0.00 | 0.00 | 0.00 | 62 | 1020.5 |
| 20260507002920 | 67 | 228 | 0.0 | 0.0 | 0.00 | 0.00 | 0.00 | 57 | 1020.4 |
| 20260507002416 | 67 | 297 | 1.7 | 2.6 | 0.00 | 0.00 | 0.00 | 60 | 1020.4 |
| 20260507001913 | 68 | 318 | 2.6 | 2.6 | 0.00 | 0.00 | 0.00 | 58 | 1020.2 |
| 20260507001410 | 68 | 356 | 1.7 | 1.7 | 0.00 | 0.00 | 0.00 | 59 | 1020.5 |
| 20260507000908 | 67 | 341 | 2.6 | 3.5 | 0.00 | 0.00 | 0.00 | 61 | 1020.4 |
| 20260507000405 | 69 | 336 | 2.6 | 3.5 | 0.00 | 0.00 | 0.00 | 58 | 1020.4 |
| 20260506235859 | 68 | 350 | 1.7 | 1.7 | 0.00 | 0.00 | 0.00 | 59 | 1020.4 |
| 20260506235356 | 68 | 337 | 0.9 | 0.9 | 0.00 | 0.00 | 0.00 | 60 | 1020.3 |
| 20260506234852 | 69 | 83 | 1.7 | 2.6 | 0.00 | 0.00 | 0.00 | 59 | 1020.3 |
| 20260506234349 | 69 | 356 | 2.6 | 3.5 | 0.00 | 0.00 | 0.00 | 59 | 1020.2 |
| 20260506233847 | 70 | 65 | 1.7 | 3.5 | 0.00 | 0.00 | 0.00 | 60 | 1020.2 |
| 20260506233343 | 69 | 2 | 0.0 | 0.9 | 0.00 | 0.00 | 0.00 | 58 | 1020.3 |
| 20260506232840 | 70 | 344 | 3.5 | 6.1 | 0.00 | 0.00 | 0.00 | 58 | 1020.2 |
| 20260506232336 | 68 | 347 | 2.6 | 3.5 | 0.00 | 0.00 | 0.00 | 60 | 1020.2 |
| 20260506231832 | 68 | 303 | 0.9 | 1.7 | 0.00 | 0.00 | 0.00 | 61 | 1020.2 |
| 20260506231330 | 68 | 322 | 3.5 | 5.2 | 0.00 | 0.00 | 0.00 | 61 | 1020.4 |
| 20260506230827 | 68 | 285 | 0.0 | 0.0 | 0.00 | 0.00 | 0.00 | 59 | 1020.3 |
| 20260506230324 | 67 | 294 | 0.0 | 0.0 | 0.00 | 0.00 | 0.00 | 61 | 1020.4 |
| 20260506225820 | 70 | 294 | 1.7 | 2.6 | 0.00 | 0.00 | 0.00 | 59 | 1020.4 |
| 20260506225318 | 69 | 4 | 2.6 | 3.5 | 0.00 | 0.00 | 0.00 | 63 | 1020.2 |
| 20260506224814 | 68 | 310 | 2.6 | 3.5 | 0.00 | 0.00 | 0.00 | 62 | 1020.3 |
| 20260506224312 | 69 | 321 | 0.9 | 0.9 | 0.00 | 0.00 | 0.00 | 61 | 1020.4 |
| 20260506223808 | 69 | 12 | 1.7 | 2.6 | 0.00 | 0.00 | 0.00 | 61 | 1020.5 |
| 20260506223303 | 68 | 357 | 0.9 | 1.7 | 0.00 | 0.00 | 0.00 | 62 | 1020.8 |
| 20260506222800 | 68 | 319 | 3.5 | 6.1 | 0.00 | 0.00 | 0.00 | 63 | 1020.6 |
| 20260506222256 | 69 | 340 | 3.5 | 3.5 | 0.00 | 0.00 | 0.00 | 62 | 1020.7 |
| 20260506221754 | 71 | 322 | 3.5 | 3.5 | 0.00 | 0.00 | 0.00 | 58 | 1020.7 |
| 20260506221252 | 69 | 249 | 1.7 | 2.6 | 0.00 | 0.00 | 0.00 | 60 | 1020.6 |
| 20260506220749 | 70 | 358 | 1.7 | 2.6 | 0.00 | 0.00 | 0.00 | 60 | 1020.5 |
| 20260506220243 | 72 | 18 | 0.0 | 0.0 | 0.00 | 0.00 | 0.00 | 56 | 1020.7 |
| 20260506215741 | 70 | 39 | 0.9 | 0.9 | 0.00 | 0.00 | 0.00 | 60 | 1020.7 |
| 20260506215236 | 70 | 325 | 2.6 | 5.2 | 0.00 | 0.00 | 0.00 | 59 | 1020.8 |
| 20260506214733 | 70 | 307 | 3.5 | 3.5 | 0.00 | 0.00 | 0.00 | 59 | 1020.6 |
| 20260506214230 | 69 | 335 | 3.5 | 5.2 | 0.00 | 0.00 | 0.00 | 61 | 1020.9 |
| 20260506213728 | 70 | 282 | 1.7 | 2.6 | 0.00 | 0.00 | 0.00 | 58 | 1020.6 |
| 20260506213225 | 71 | 331 | 1.7 | 1.7 | 0.00 | 0.00 | 0.00 | 55 | 1020.7 |
| 20260506212722 | 69 | 333 | 3.5 | 3.5 | 0.00 | 0.00 | 0.00 | 60 | 1020.6 |
| 20260506212218 | 69 | 47 | 0.0 | 0.9 | 0.00 | 0.00 | 0.00 | 58 | 1020.9 |
| 20260506211714 | 70 | 327 | 3.5 | 5.2 | 0.00 | 0.00 | 0.00 | 58 | 1021.0 |
| 20260506211210 | 68 | 168 | 1.7 | 1.7 | 0.00 | 0.00 | 0.00 | 62 | 1020.9 |
| 20260506210707 | 69 | 278 | 0.0 | 0.9 | 0.00 | 0.00 | 0.00 | 62 | 1020.8 |
| 20260506210204 | 68 | 306 | 0.9 | 1.7 | 0.00 | 0.00 | 0.00 | 62 | 1020.9 |
| 20260506205701 | 68 | 105 | 2.6 | 2.6 | 0.00 | 0.00 | 0.00 | 63 | 1020.9 |
| 20260506205156 | 68 | 328 | 1.7 | 2.6 | 0.00 | 0.00 | 0.00 | 65 | 1020.9 |
| 20260506204654 | 68 | 350 | 3.5 | 6.1 | 0.00 | 0.00 | 0.00 | 62 | 1020.9 |
| 20260506204150 | 69 | 351 | 0.0 | 0.0 | 0.00 | 0.00 | 0.00 | 62 | 1021.1 |
| 20260506203648 | 67 | 340 | 1.7 | 2.6 | 0.00 | 0.00 | 0.00 | 64 | 1021.0 |
| 20260506203145 | 67 | 301 | 1.7 | 3.5 | 0.00 | 0.00 | 0.00 | 66 | 1021.1 |
| 20260506202643 | 65 | 305 | 0.0 | 0.9 | 0.00 | 0.00 | 0.00 | 66 | 1021.0 |
| 20260506202139 | 66 | 55 | 2.6 | 2.6 | 0.00 | 0.00 | 0.00 | 67 | 1021.4 |
| 20260506201636 | 68 | 18 | 1.7 | 2.6 | 0.00 | 0.00 | 0.00 | 62 | 1021.1 |
| 20260506201133 | 69 | 303 | 0.9 | 1.7 | 0.00 | 0.00 | 0.00 | 58 | 1021.1 |
| 20260506200629 | 66 | 306 | 2.6 | 2.6 | 0.00 | 0.00 | 0.00 | 63 | 1021.1 |
| 20260506200126 | 67 | 274 | 0.0 | 0.0 | 0.00 | 0.00 | 0.00 | 62 | 1021.1 |
| 20260506195623 | 67 | 321 | 4.3 | 6.1 | 0.00 | 0.00 | 0.00 | 62 | 1021.3 |
| 20260506195119 | 66 | 250 | 0.0 | 0.9 | 0.00 | 0.00 | 0.00 | 63 | 1021.1 |
| 20260506194617 | 68 | 285 | 0.0 | 0.0 | 0.00 | 0.00 | 0.00 | 61 | 1021.4 |
| 20260506194113 | 66 | 275 | 0.9 | 0.9 | 0.00 | 0.00 | 0.00 | 60 | 1021.2 |
| 20260506193611 | 68 | 59 | 0.0 | 0.0 | 0.00 | 0.00 | 0.00 | 63 | 1021.1 |
| 20260506193108 | 66 | 284 | 0.9 | 1.7 | 0.00 | 0.00 | 0.00 | 61 | 1021.2 |
| 20260506192604 | 66 | 264 | 1.7 | 1.7 | 0.00 | 0.00 | 0.00 | 62 | 1021.2 |
| 20260506192100 | 66 | 304 | 2.6 | 3.5 | 0.00 | 0.00 | 0.00 | 61 | 1021.0 |
| 20260506191557 | 66 | 252 | 1.7 | 2.6 | 0.00 | 0.00 | 0.00 | 64 | 1021.0 |
| 20260506191053 | 64 | 219 | 2.6 | 3.5 | 0.00 | 0.00 | 0.00 | 65 | 1021.0 |
| 20260506190550 | 63 | 122 | 0.0 | 0.9 | 0.00 | 0.00 | 0.00 | 69 | 1021.3 |
| 20260506190047 | 64 | 224 | 3.5 | 5.2 | 0.00 | 0.00 | 0.00 | 66 | 1021.2 |
| 20260506185545 | 64 | 244 | 1.7 | 1.7 | 0.00 | 0.00 | 0.00 | 66 | 1021.1 |
| 20260506185041 | 66 | 321 | 3.5 | 5.2 | 0.00 | 0.00 | 0.00 | 64 | 1021.2 |
| 20260506184539 | 64 | 274 | 2.6 | 2.6 | 0.00 | 0.00 | 0.00 | 66 | 1021.2 |
| 20260506184036 | 65 | 251 | 3.5 | 5.2 | 0.00 | 0.00 | 0.00 | 64 | 1021.3 |
| 20260506183531 | 64 | 314 | 1.7 | 2.6 | 0.00 | 0.00 | 0.00 | 69 | 1021.3 |
| 20260506183028 | 65 | 292 | 0.9 | 1.7 | 0.00 | 0.00 | 0.00 | 63 | 1021.4 |
| 20260506182526 | 65 | 292 | 1.7 | 2.6 | 0.00 | 0.00 | 0.00 | 68 | 1021.3 |
| 20260506182023 | 64 | 309 | 5.2 | 7.0 | 0.00 | 0.00 | 0.00 | 67 | 1021.3 |
| 20260506181521 | 63 | 294 | 0.9 | 0.9 | 0.00 | 0.00 | 0.00 | 68 | 1021.3 |
| 20260506181017 | 65 | 313 | 0.9 | 0.9 | 0.00 | 0.00 | 0.00 | 64 | 1021.2 |
| 20260506180514 | 64 | 243 | 1.7 | 2.6 | 0.00 | 0.00 | 0.00 | 65 | 1021.3 |
| 20260506180010 | 65 | 207 | 0.0 | 0.0 | 0.00 | 0.00 | 0.00 | 67 | 1021.4 |
| 20260506175507 | 62 | 263 | 0.9 | 0.9 | 0.00 | 0.00 | 0.00 | 69 | 1021.3 |
| 20260506175003 | 62 | 300 | 2.6 | 3.5 | 0.00 | 0.00 | 0.00 | 71 | 1021.2 |
| 20260506174502 | 63 | 263 | 2.6 | 2.6 | 0.00 | 0.00 | 0.00 | 69 | 1021.1 |
| 20260506173958 | 64 | 258 | 3.5 | 5.2 | 0.00 | 0.00 | 0.00 | 66 | 1021.0 |
| 20260506173456 | 61 | 105 | 1.7 | 1.7 | 0.00 | 0.00 | 0.00 | 75 | 1020.9 |
| 20260506172952 | 62 | 325 | 0.9 | 1.7 | 0.00 | 0.00 | 0.00 | 74 | 1021.1 |
| 20260506172450 | 63 | 299 | 3.5 | 5.2 | 0.00 | 0.00 | 0.00 | 70 | 1021.1 |
| 20260506171946 | 60 | 241 | 0.0 | 0.0 | 0.00 | 0.00 | 0.00 | 73 | 1021.2 |
| 20260506171443 | 60 | 142 | 1.7 | 2.6 | 0.00 | 0.00 | 0.00 | 75 | 1021.2 |
| 20260506170941 | 60 | 244 | 0.0 | 0.0 | 0.00 | 0.00 | 0.00 | 75 | 1021.4 |
| 20260506170437 | 59 | 319 | 2.6 | 3.5 | 0.00 | 0.00 | 0.00 | 75 | 1021.4 |
| 20260506165936 | 60 | 253 | 0.9 | 0.9 | 0.00 | 0.00 | 0.00 | 78 | 1021.2 |
| 20260506165434 | 61 | 301 | 1.7 | 2.6 | 0.00 | 0.00 | 0.00 | 73 | 1021.2 |
| 20260506164930 | 60 | 259 | 1.7 | 1.7 | 0.00 | 0.00 | 0.00 | 76 | 1021.1 |
| 20260506164427 | 60 | 305 | 0.9 | 1.7 | 0.00 | 0.00 | 0.00 | 78 | 1021.2 |
| 20260506163925 | 58 | 343 | 0.0 | 0.0 | 0.00 | 0.00 | 0.00 | 80 | 1021.4 |
| 20260506163425 | 58 | 34 | 0.0 | 0.0 | 0.00 | 0.00 | 0.00 | 82 | 1021.4 |
| 20260506162920 | 57 | 18 | 0.0 | 0.0 | 0.00 | 0.00 | 0.00 | 82 | 1021.4 |
| 20260506162419 | 57 | 247 | 0.0 | 0.0 | 0.00 | 0.00 | 0.00 | 81 | 1021.5 |
| 20260506161916 | 58 | 291 | 1.7 | 2.6 | 0.00 | 0.00 | 0.00 | 78 | 1021.4 |
| 20260506161414 | 59 | 307 | 0.0 | 0.0 | 0.00 | 0.00 | 0.00 | 78 | 1021.5 |
| 20260506160911 | 57 | 265 | 0.0 | 0.0 | 0.00 | 0.00 | 0.00 | 82 | 1021.4 |
| 20260506160408 | 54 | 242 | 0.9 | 1.7 | 0.00 | 0.00 | 0.00 | 86 | 1021.1 |
| 20260506155906 | 53 | 164 | 0.0 | 0.0 | 0.00 | 0.00 | 0.00 | 89 | 1021.2 |
| 20260506155402 | 53 | 145 | 2.6 | 2.6 | 0.00 | 0.00 | 0.00 | 89 | 1021.1 |
| 20260506153519 | 54 | 312 | 0.9 | 1.7 | 0.00 | 0.00 | 0.00 | 90 | 1020.9 |
| 20260506153017 | 54 | 299 | 0.0 | 0.0 | 0.00 | 0.00 | 0.00 | 90 | 1021.3 |
| 20260506152513 | 53 | 299 | 0.0 | 0.0 | 0.00 | 0.00 | 0.00 | 91 | 1021.3 |
| 20260506152012 | 53 | 299 | 0.0 | 0.0 | 0.00 | 0.00 | 0.00 | 92 | 1021.2 |
| 20260506151509 | 53 | 299 | 0.0 | 0.0 | 0.00 | 0.00 | 0.00 | 92 | 1021.3 |
| 20260506151006 | 53 | 299 | 0.0 | 0.0 | 0.00 | 0.00 | 0.00 | 92 | 1021.4 |
| 20260506150502 | 52 | 299 | 0.0 | 0.0 | 0.00 | 0.00 | 0.00 | 93 | 1021.4 |
| 20260506145959 | 52 | 299 | 0.9 | 1.7 | 0.00 | 0.00 | 0.00 | 94 | 1021.3 |
| 20260506145455 | 52 | 302 | 1.7 | 1.7 | 0.00 | 0.00 | 0.00 | 94 | 1021.3 |
| 20260506144953 | 52 | 301 | 0.0 | 0.0 | 0.00 | 0.00 | 0.00 | 94 | 1021.4 |
| 20260506144450 | 52 | 302 | 0.0 | 0.0 | 0.00 | 0.00 | 0.00 | 94 | 1021.4 |
| 20260506143948 | 52 | 162 | 0.0 | 0.0 | 0.00 | 0.00 | 0.00 | 94 | 1021.5 |
| 20260506143444 | 52 | 162 | 0.0 | 0.0 | 0.00 | 0.00 | 0.00 | 95 | 1021.2 |
| 20260506142943 | 52 | 192 | 0.9 | 0.9 | 0.00 | 0.00 | 0.00 | 94 | 1021.2 |
| 20260506142440 | 52 | 183 | 0.0 | 0.0 | 0.00 | 0.00 | 0.00 | 95 | 1020.9 |
| 20260506141939 | 52 | 184 | 0.0 | 0.0 | 0.00 | 0.00 | 0.00 | 95 | 1020.9 |
| 20260506141436 | 52 | 183 | 0.0 | 0.0 | 0.00 | 0.00 | 0.00 | 95 | 1020.8 |
| 20260506140935 | 52 | 143 | 0.0 | 0.0 | 0.00 | 0.00 | 0.00 | 96 | 1020.7 |
| 20260506140431 | 51 | 127 | 0.0 | 0.0 | 0.00 | 0.00 | 0.00 | 96 | 1020.2 |
| 20260506135928 | 51 | 149 | 0.9 | 1.7 | 0.00 | 0.00 | 0.00 | 96 | 1020.4 |
| 20260506135425 | 51 | 158 | 0.0 | 0.0 | 0.00 | 0.00 | 0.00 | 97 | 1020.3 |
| 20260506134921 | 51 | 158 | 0.0 | 0.0 | 0.00 | 0.00 | 0.00 | 97 | 1020.2 |
| 20260506134417 | 51 | 143 | 0.0 | 0.0 | 0.00 | 0.00 | 0.00 | 97 | 1020.2 |
| 20260506133915 | 51 | 119 | 0.0 | 0.0 | 0.00 | 0.00 | 0.00 | 97 | 1020.3 |
| 20260506133411 | 51 | 119 | 0.0 | 0.0 | 0.00 | 0.00 | 0.00 | 97 | 1020.2 |
| 20260506132908 | 51 | 119 | 0.0 | 0.0 | 0.00 | 0.00 | 0.00 | 97 | 1020.2 |
| 20260506132405 | 51 | 119 | 0.0 | 0.0 | 0.00 | 0.00 | 0.00 | 97 | 1020.3 |
| 20260506131903 | 51 | 119 | 0.0 | 0.0 | 0.00 | 0.00 | 0.00 | 96 | 1020.3 |
| 20260506131359 | 51 | 114 | 0.0 | 0.0 | 0.00 | 0.00 | 0.00 | 96 | 1020.3 |
| 20260506130856 | 51 | 114 | 0.0 | 0.0 | 0.00 | 0.00 | 0.00 | 96 | 1020.1 |
| 20260506130352 | 51 | 354 | 0.0 | 0.0 | 0.00 | 0.00 | 0.00 | 96 | 1020.1 |
| 20260506125850 | 51 | 354 | 0.0 | 0.0 | 0.00 | 0.00 | 0.00 | 96 | 1020.0 |
| 20260506125349 | 51 | 354 | 0.0 | 0.0 | 0.00 | 0.00 | 0.00 | 96 | 1020.1 |
| 20260506124847 | 51 | 354 | 0.0 | 0.0 | 0.00 | 0.00 | 0.00 | 96 | 1020.0 |
| 20260506124343 | 51 | 353 | 0.0 | 0.0 | 0.00 | 0.00 | 0.00 | 96 | 1020.0 |
| 20260506123841 | 51 | 353 | 0.0 | 0.0 | 0.00 | 0.00 | 0.00 | 96 | 1019.9 |
| 20260506123339 | 51 | 353 | 0.0 | 0.0 | 0.00 | 0.00 | 0.00 | 96 | 1020.0 |
| 20260506122836 | 51 | 353 | 0.0 | 0.0 | 0.00 | 0.00 | 0.00 | 96 | 1020.0 |
| 20260506122333 | 51 | 353 | 0.0 | 0.0 | 0.00 | 0.00 | 0.00 | 96 | 1019.9 |
| 20260506121831 | 51 | 353 | 0.0 | 0.0 | 0.00 | 0.00 | 0.00 | 96 | 1020.2 |
| 20260506121328 | 51 | 353 | 0.0 | 0.0 | 0.00 | 0.00 | 0.00 | 96 | 1019.9 |
| 20260506120825 | 51 | 353 | 0.0 | 0.0 | 0.00 | 0.00 | 0.00 | 96 | 1020.0 |
| 20260506120323 | 51 | 353 | 0.0 | 0.0 | 0.00 | 0.00 | 0.00 | 96 | 1020.0 |
| 20260506115820 | 51 | 353 | 0.0 | 0.0 | 0.00 | 0.00 | 0.00 | 95 | 1019.8 |
| 20260506115318 | 51 | 353 | 0.0 | 0.0 | 0.00 | 0.00 | 0.00 | 96 | 1019.6 |
| 20260506114816 | 51 | 353 | 0.0 | 0.0 | 0.00 | 0.00 | 0.00 | 96 | 1019.9 |
| 20260506114313 | 51 | 353 | 0.0 | 0.0 | 0.00 | 0.00 | 0.00 | 96 | 1019.7 |
| 20260506113812 | 51 | 353 | 0.0 | 0.0 | 0.00 | 0.00 | 0.00 | 96 | 1019.8 |
| 20260506113309 | 51 | 353 | 0.0 | 0.0 | 0.00 | 0.00 | 0.00 | 96 | 1019.6 |
| 20260506112805 | 50 | 353 | 0.0 | 0.0 | 0.00 | 0.00 | 0.00 | 96 | 1019.5 |